sat.trackr.live / text

‹ back to catalog

STARLINK-34547

NORAD 64777 · 2025-147Y

PAYLOAD ACTIVE UNKNOWN

§ Identity

Operator
Country
US
Launch date
2025-07-08
Launch site
AFETR
Launch vehicle
Mass (kg)
RCS (m²)

Purposes: comms

External: N2YO · Heavens-Above · Gunter

§ Orbital elements

Epoch: 2026-09-20T14:04:21.451296Z

Period
93.85 min
Inclination
53.1585°
Eccentricity
0.0001463
Mean motion
15.34414426 rev/d
Perigee alt
461.7 km
Apogee alt
463.7 km
Semi-major
6,840.8 km
B*
6.9513e-4
RAAN
53.0516°
Arg perigee
79.9225°
Mean anomaly
280.1943°
Rev number
6,859

§ Raw data

STARLINK-345471 64777U 25147Y   26263.58635939  .00023193  00000+0  69513-3 0  99912 64777  53.1585  53.0516 0001463  79.9225 280.1943 15.34414426 68597

JSON: /api/v1/satellites/64777 · /tle

For live sub-satellite position, see the globe view (requires WebGL).

§ Visibility from observer

Set your observer location to see the next 7 days of passes ≥ 10°. The values pass through the URL so the page stays shareable.

No JS? Fill the form by hand. The geolocation button needs JavaScript.